Wise, VA

8:52 AM EDT on July 21, 2017 (GMT -0400)
Lonesome Pine

Weather History for KLNP - January, 2014

Change the Weather History Date:

Sunday, January 26, 2014

  Actual Average Record
Temperature  
Mean Temperature 27 °F -  
Max Temperature 42 °F 39 °F 59 °F (2012)
Min Temperature 12 °F 23 °F 10 °F (2000)
Degree Days  
Heating Degree Days 38    
Moisture  
Dew Point 15 °F    
Average Humidity 53    
Maximum Humidity 66    
Minimum Humidity 37    
Precipitation  
Precipitation 0.00 in - - ()
Sea Level Pressure  
Sea Level Pressure 29.77 in    
Wind  
Wind Speed 11 mph (SW)    
Max Wind Speed 24 mph    
Max Gust Speed 34 mph    
Visibility 10 miles    
Events      
Averages and records for this station are not official NWS values.
T = Trace of Precipitation, MM = Missing Value Source: NWS Daily Summary

Daily Weather History Graph

Daily Weather History Graph

Search for Another Location

Airport or City:

Trip Planner

Search our weather history database for the weather conditions in past years. The results will help you decide how hot, cold, wet, or windy it might be!

Date:

Astronomy

Jan. 26, 2014 Rise Set
Actual Time 7:37 AM EST 5:48 PM EST
Civil Twilight 7:09 AM EST 6:16 PM EST
Nautical Twilight 6:37 AM EST 6:47 PM EST
Astronomical Twilight 6:07 AM EST 7:18 PM EST
Moon 3:12 AM EST (1/26) 1:37 PM EST (1/26)
Length of Visible Light 11h 07m
Length of Day
10h 11m
Waning Crescent, 24% of the Moon is Illuminated
Jan 26
Waning Crescent
Jan 30
New
Feb 6
First Quarter
Feb 14
Full
Feb 22
Last Quarter

Hourly Weather History & Observations

Time (EST) Temp. Windchill Dew Point Humidity Pressure Visibility Wind Dir Wind Speed Gust Speed Precip Events Conditions
12:15 AM 21.2 °F 7.3 °F 3.2 °F 46% 29.81 in 10.0 mi West 16.1 mph 20.7 mph N/A   Clear
12:35 AM 21.2 °F 10.9 °F 1.4 °F 42% 29.81 in 10.0 mi West 9.2 mph 18.4 mph N/A   Clear
12:55 AM 21.2 °F 10.1 °F 1.4 °F 42% 29.82 in 10.0 mi WNW 10.4 mph - N/A   Clear
1:15 AM 19.4 °F 9.5 °F -0.4 °F 42% 29.82 in 10.0 mi West 8.1 mph - N/A   Clear
1:35 AM 19.4 °F 10.4 °F -0.4 °F 42% 29.84 in 10.0 mi WSW 6.9 mph - N/A   Clear
1:55 AM 17.6 °F 9.3 °F -0.4 °F 45% 29.83 in 10.0 mi SW 5.8 mph - N/A   Clear
2:15 AM 15.8 °F 7.2 °F -0.4 °F 49% 29.83 in 10.0 mi SW 5.8 mph - N/A   Clear
2:35 AM 17.6 °F 8.2 °F 1.4 °F 49% 29.84 in 10.0 mi West 6.9 mph - N/A   Clear
2:55 AM 17.6 °F 8.2 °F 1.4 °F 49% 29.84 in 10.0 mi West 6.9 mph - N/A   Clear
3:15 AM 17.6 °F 9.3 °F -0.4 °F 45% 29.84 in 10.0 mi WSW 5.8 mph - N/A   Clear
3:35 AM 12.2 °F 6.1 °F -0.4 °F 57% 29.83 in 10.0 mi West 3.5 mph - N/A   Clear
3:55 AM 14.0 °F - -0.4 °F 53% 29.84 in 10.0 mi Calm Calm - N/A   Clear
4:15 AM 15.8 °F - -0.4 °F 49% 29.84 in 10.0 mi Calm Calm - N/A   Clear
4:35 AM 14.0 °F - -0.4 °F 53% 29.83 in 10.0 mi Calm Calm - N/A   Clear
4:55 AM 14.0 °F 8.2 °F -0.4 °F 53% 29.82 in 10.0 mi SE 3.5 mph - N/A   Clear
5:15 AM 15.8 °F 8.6 °F -0.4 °F 49% 29.81 in 10.0 mi South 4.6 mph - N/A   Mostly Cloudy
5:35 AM 12.2 °F 2.9 °F -0.4 °F 57% 29.80 in 10.0 mi SSW 5.8 mph - N/A   Scattered Clouds
5:55 AM 14.0 °F 6.5 °F 1.4 °F 57% 29.82 in 10.0 mi SW 4.6 mph - N/A   Mostly Cloudy
6:15 AM 17.6 °F 9.3 °F 1.4 °F 49% 29.81 in 10.0 mi SW 5.8 mph - N/A   Overcast
6:35 AM 17.6 °F 10.7 °F 1.4 °F 49% 29.81 in 10.0 mi South 4.6 mph - N/A   Overcast
6:55 AM 17.6 °F 10.7 °F 1.4 °F 49% 29.81 in 10.0 mi South 4.6 mph - N/A   Scattered Clouds
7:15 AM 17.6 °F 10.7 °F -0.4 °F 45% 29.79 in 10.0 mi South 4.6 mph - N/A   Clear
7:35 AM 14.0 °F 5.1 °F -0.4 °F 53% 29.80 in 10.0 mi SSW 5.8 mph - N/A   Clear
7:55 AM 14.0 °F 2.9 °F -0.4 °F 53% 29.79 in 10.0 mi SSW 8.1 mph - N/A   Clear
8:15 AM 17.6 °F 6.4 °F -0.4 °F 45% 29.78 in 10.0 mi SSW 9.2 mph - N/A   Clear
8:35 AM 21.2 °F 8.3 °F -0.4 °F 39% 29.77 in 10.0 mi SSW 13.8 mph - N/A   Clear
8:55 AM 23.0 °F 11.7 °F 1.4 °F 39% 29.76 in 10.0 mi SW 11.5 mph - N/A   Mostly Cloudy
9:15 AM 21.2 °F 9.5 °F 3.2 °F 46% 29.76 in 10.0 mi SW 11.5 mph - N/A   Overcast
9:35 AM 23.0 °F 12.4 °F 5.0 °F 46% 29.77 in 10.0 mi SW 10.4 mph - N/A   Overcast
9:55 AM 26.6 °F 16.8 °F 5.0 °F 40% 29.77 in 10.0 mi SW 10.4 mph - N/A   Overcast
10:15 AM 28.4 °F 19.1 °F 5.0 °F 37% 29.77 in 10.0 mi WSW 10.4 mph - N/A   Overcast
10:35 AM 28.4 °F 17.5 °F 6.8 °F 40% 29.79 in 10.0 mi SW 13.8 mph - N/A   Overcast
10:55 AM 30.2 °F 18.5 °F 10.4 °F 44% 29.79 in 10.0 mi SSW 17.3 mph 23.0 mph N/A   Overcast
11:15 AM 30.2 °F 18.5 °F 10.4 °F 44% 29.78 in 10.0 mi SSW 17.3 mph - N/A   Overcast
11:35 AM 32.0 °F 23.0 °F 10.4 °F 41% 29.78 in 10.0 mi SSW 11.5 mph - N/A   Overcast
11:55 AM 33.8 °F 23.9 °F 12.2 °F 41% 29.78 in 10.0 mi SW 15.0 mph 19.6 mph N/A   Mostly Cloudy
12:15 PM 33.8 °F 22.5 °F 15.8 °F 48% 29.77 in 7.0 mi SW 19.6 mph 29.9 mph N/A   Clear
12:35 PM 33.8 °F 22.8 °F 17.6 °F 52% 29.75 in 7.0 mi SW 18.4 mph 26.5 mph N/A   Clear
12:55 PM 35.6 °F 25.2 °F 19.4 °F 52% 29.74 in 10.0 mi SW 18.4 mph 26.5 mph N/A   Clear
1:15 PM 37.4 °F 26.6 °F 23.0 °F 56% 29.74 in 10.0 mi SW 21.9 mph 29.9 mph N/A   Clear
1:35 PM 37.4 °F 26.6 °F 24.8 °F 60% 29.73 in 10.0 mi SW 21.9 mph 29.9 mph N/A   Clear
1:55 PM 39.2 °F 28.7 °F 24.8 °F 56% 29.72 in 10.0 mi SW 23.0 mph 29.9 mph N/A   Clear
2:15 PM 39.2 °F 29.0 °F 26.6 °F 61% 29.72 in 10.0 mi SW 21.9 mph 29.9 mph N/A   Clear
2:35 PM 41.0 °F 31.9 °F 26.6 °F 57% 29.72 in 10.0 mi SW 19.6 mph 27.6 mph N/A   Clear
2:55 PM 41.0 °F 31.4 °F 26.6 °F 57% 29.71 in 10.0 mi SW 21.9 mph 28.8 mph N/A   Clear
3:15 PM 42.8 °F 36.2 °F 26.6 °F 53% 29.70 in 10.0 mi SSW 12.7 mph 26.5 mph N/A   Clear
3:35 PM 42.8 °F 35.4 °F 26.6 °F 53% 29.71 in 10.0 mi SSW 15.0 mph 19.6 mph N/A   Clear
3:55 PM 42.8 °F 35.1 °F 26.6 °F 53% 29.71 in 10.0 mi SSW 16.1 mph - N/A   Clear
4:15 PM 42.8 °F 35.8 °F 28.4 °F 57% 29.71 in 10.0 mi SSW 13.8 mph - N/A   Clear
4:35 PM 42.8 °F 35.4 °F 28.4 °F 57% 29.71 in 10.0 mi SSW 15.0 mph - N/A   Clear
4:55 PM 41.0 °F 34.7 °F 28.4 °F 61% 29.72 in 10.0 mi SSW 10.4 mph - N/A   Clear
5:15 PM 41.0 °F 35.2 °F 28.4 °F 61% 29.72 in 10.0 mi SSW 9.2 mph - N/A   Clear
5:35 PM 41.0 °F 35.8 °F 28.4 °F 61% 29.72 in 10.0 mi SSW 8.1 mph - N/A   Clear
5:55 PM 41.0 °F 35.2 °F 28.4 °F 61% 29.72 in 10.0 mi South 9.2 mph 16.1 mph N/A   Clear
6:15 PM 41.0 °F 33.9 °F 30.2 °F 65% 29.72 in 10.0 mi SSW 12.7 mph - N/A   Clear
6:35 PM 41.0 °F 31.9 °F 30.2 °F 65% 29.71 in 10.0 mi SSW 19.6 mph 24.2 mph N/A   Clear
6:55 PM 41.0 °F 30.9 °F 30.2 °F 65% 29.71 in 10.0 mi SSW 24.2 mph 29.9 mph N/A   Clear
7:15 PM 42.8 °F 35.1 °F 30.2 °F 61% 29.71 in 10.0 mi SSW 16.1 mph 29.9 mph N/A   Clear
7:35 PM 41.0 °F 32.2 °F 30.2 °F 65% 29.72 in 10.0 mi SSW 18.4 mph 26.5 mph N/A   Clear
7:55 PM 42.8 °F 34.0 °F 30.2 °F 61% 29.72 in 10.0 mi SW 20.7 mph 29.9 mph N/A   Clear
8:15 PM 42.8 °F 36.6 °F 30.2 °F 61% 29.73 in 10.0 mi SW 11.5 mph 23.0 mph N/A   Clear
8:35 PM 42.8 °F 34.0 °F 30.2 °F 61% 29.73 in 10.0 mi WSW 20.7 mph 31.1 mph N/A   Clear
8:55 PM 42.8 °F 34.8 °F 30.2 °F 61% 29.73 in 10.0 mi SW 17.3 mph 23.0 mph N/A   Clear
9:15 PM 42.8 °F 33.3 °F 30.2 °F 61% 29.73 in 10.0 mi SW 24.2 mph 29.9 mph N/A   Clear
9:35 PM 42.8 °F 34.5 °F 30.2 °F 61% 29.73 in 10.0 mi SW 18.4 mph 29.9 mph N/A   Clear
9:55 PM 42.8 °F 34.0 °F 30.2 °F 61% 29.73 in 10.0 mi SW 20.7 mph 34.5 mph N/A   Clear
10:15 PM 42.8 °F 33.8 °F 30.2 °F 61% 29.73 in 10.0 mi SW 21.9 mph 28.8 mph N/A   Clear
10:35 PM 41.0 °F 30.9 °F 30.2 °F 65% 29.73 in 10.0 mi SW 24.2 mph 32.2 mph N/A   Clear
10:55 PM 41.0 °F 31.4 °F 30.2 °F 65% 29.74 in 10.0 mi SW 21.9 mph 31.1 mph N/A   Clear
11:15 PM 42.8 °F 34.0 °F 30.2 °F 61% 29.74 in 10.0 mi SW 20.7 mph 32.2 mph N/A   Scattered Clouds
11:35 PM 42.8 °F 33.8 °F 30.2 °F 61% 29.74 in 10.0 mi SW 21.9 mph 32.2 mph N/A   Mostly Cloudy
11:55 PM 42.8 °F 33.8 °F 32.0 °F 66% 29.74 in 10.0 mi SW 21.9 mph 33.4 mph N/A   Overcast